Weather History for Lynchburg, VA

Change the Weather History Date:

Sunday, November 4, 2012

  Actual Average Record
Temperature  
Mean Temperature 46 °F 51 °F  
Max Temperature 53 °F 63 °F 81 °F (1974)
Min Temperature 38 °F 38 °F 21 °F (2006)
Degree Days  
Heating Degree Days 19 14  
Month to date heating degree days 76 56  
Since 1 July heating degree days 395 403  
Cooling Degree Days 0 0  
Month to date cooling degree days 0 0  
Year to date cooling degree days 1244 1031  
Moisture  
Dew Point 38 °F    
Average Humidity 80    
Maximum Humidity 100    
Minimum Humidity 59    
Precipitation  
Precipitation 0.10 in 0.11 in 1.86 in (1896)
Month to date precipitation 0.16 0.48  
Year to date precipitation 26.74 35.40  
Snow  
Snow 0.00 in - - ()
Month to date snowfall 0.0  
Since 1 July snowfall 0.0  
Since 1 September snowfall 0.0  
Snow Depth 0.00 in    
Sea Level Pressure  
Sea Level Pressure 30.06 in    
Wind  
Wind Speed 1 mph (WNW)    
Max Wind Speed 12 mph    
Max Gust Speed 15 mph    
Visibility 10 miles    
Events Rain    
T = Trace of Precipitation, MM = Missing Value Source: NWS Daily Summary

Daily Weather History Graph

Daily Weather History Graph

Search for Another Location

Airport:

Trip Planner

Search our weather history database for the weather conditions in past years. The results will help you decide how hot, cold, wet, or windy it might be!

Date:

Astronomy

Nov. 04, 2012 Rise Set
Actual Time 6:44 AM EST 5:15 PM EST
Civil Twilight 6:17 AM EST 5:42 PM EST
Nautical Twilight 5:46 AM EST 6:13 PM EST
Astronomical Twilight 5:16 AM EST 6:43 PM EST
Moon 9:52 PM EST (11/4) 11:26 AM EST (11/4)
Length of Visible Light 11h 24m
Length of Day
10h 30m
Waning Gibbous, 72% of the Moon is Illuminated
Nov 4
Waning Gibbous
Nov 6
Last Quarter
Nov 13
New
Nov 20
First Quarter
Nov 28
Full

Hourly Weather History & Observations

Time (EST) Temp. Windchill Dew Point Humidity Pressure Visibility Wind Dir Wind Speed Gust Speed Precip Events Conditions
12:54 AM 41.0 °F - 39.9 °F 96% 30.10 in 10.0 mi Calm Calm - 0.00 in   Overcast
1:54 AM 42.1 °F - 39.0 °F 89% 30.09 in 10.0 mi Calm Calm - 0.00 in   Overcast
1:54 AM 41.0 °F - 39.9 °F 96% 30.07 in 5.0 mi Calm Calm - 0.02 in Rain Rain
2:54 AM 41.0 °F - 39.9 °F 96% 30.08 in 10.0 mi Calm Calm - 0.05 in Rain Light Rain
3:54 AM 41.0 °F - 39.0 °F 93% 30.08 in 10.0 mi Calm Calm - 0.03 in   Overcast
4:13 AM 39.2 °F - 39.2 °F 100% 30.07 in 10.0 mi Calm Calm - 0.00 in   Overcast
4:46 AM 39.2 °F - 39.2 °F 100% 30.07 in 10.0 mi Calm Calm - 0.00 in Rain Light Rain
4:54 AM 39.9 °F - 39.9 °F 100% 30.08 in 10.0 mi Calm Calm - 0.00 in   Overcast
5:13 AM 39.2 °F - 39.2 °F 100% 30.08 in 9.0 mi Calm Calm - N/A   Overcast
5:29 AM 39.2 °F - 39.2 °F 100% 30.07 in 9.0 mi Calm Calm - N/A   Overcast
5:54 AM 39.9 °F - 37.0 °F 89% 30.09 in 10.0 mi Calm Calm - N/A   Overcast
6:05 AM 39.2 °F - 37.4 °F 93% 30.08 in 10.0 mi Calm Calm - N/A   Overcast
6:29 AM 39.2 °F - 39.2 °F 100% 30.08 in 10.0 mi Calm Calm - N/A   Overcast
6:54 AM 39.9 °F - 37.0 °F 89% 30.09 in 10.0 mi Calm Calm - N/A   Overcast
7:54 AM 42.1 °F - 37.0 °F 82% 30.10 in 10.0 mi Calm Calm - N/A   Overcast
8:54 AM 42.1 °F - 36.0 °F 79% 30.11 in 10.0 mi Calm Calm - N/A   Overcast
9:54 AM 45.0 °F - 36.0 °F 71% 30.09 in 10.0 mi Calm Calm - N/A   Overcast
10:54 AM 46.9 °F - 36.0 °F 66% 30.07 in 10.0 mi Calm Calm - N/A   Mostly Cloudy
11:54 AM 50.0 °F - 37.9 °F 63% 30.04 in 10.0 mi Variable 4.6 mph - N/A   Mostly Cloudy
12:54 PM 50.0 °F - 37.0 °F 61% 30.02 in 10.0 mi Calm Calm - N/A   Scattered Clouds
1:54 PM 52.0 °F - 37.0 °F 57% 30.00 in 10.0 mi WNW 3.5 mph - N/A   Clear
2:54 PM 52.0 °F - 37.9 °F 59% 30.00 in 10.0 mi West 4.6 mph - N/A   Clear
3:54 PM 51.1 °F - 39.0 °F 63% 30.00 in 10.0 mi SSW 4.6 mph - N/A   Clear
4:54 PM 48.0 °F - 39.9 °F 74% 30.01 in 10.0 mi Calm Calm - N/A   Clear
5:54 PM 42.1 °F - 39.0 °F 89% 30.01 in 10.0 mi Calm Calm - N/A   Clear
6:54 PM 41.0 °F - 39.0 °F 93% 30.02 in 10.0 mi Calm Calm - N/A   Clear
7:54 PM 39.9 °F - 37.9 °F 93% 30.02 in 10.0 mi Calm Calm - N/A   Clear
8:54 PM 39.0 °F - 37.9 °F 96% 30.04 in 10.0 mi Calm Calm - N/A   Clear
9:16 PM 37.4 °F - 37.4 °F 100% 30.03 in 10.0 mi Calm Calm - N/A   Mostly Cloudy
9:54 PM 41.0 °F - 39.0 °F 93% 30.04 in 10.0 mi Calm Calm - N/A   Mostly Cloudy
10:47 PM 44.6 °F 40.7 °F 39.2 °F 81% 30.04 in 10.0 mi North 6.9 mph - N/A   Overcast
10:54 PM 44.1 °F 39.5 °F 39.9 °F 85% 30.05 in 10.0 mi NNE 8.1 mph - N/A   Overcast